sat.trackr.live / text

‹ back to catalog

STARLINK-2193

NORAD 47770 · 2021-017BA

PAYLOAD ACTIVE UNKNOWN

§ Identity

Operator
Country
US
Launch date
2021-03-04
Launch site
AFETR
Launch vehicle
Mass (kg)
RCS (m²)

Purposes: comms

External: N2YO · Heavens-Above · Gunter

§ Orbital elements

Epoch: 2026-09-08T19:17:03.957792Z

Period
94.01 min
Inclination
53.1606°
Eccentricity
0.0001222
Mean motion
15.31703125 rev/d
Perigee alt
469.9 km
Apogee alt
471.6 km
Semi-major
6,848.9 km
B*
2.8738e-5
RAAN
71.7617°
Arg perigee
96.2518°
Mean anomaly
263.8623°
Rev number
30,592

§ Raw data

STARLINK-21931 47770U 21017BA  26251.80351803  .00000527  00000+0  28738-4 0  99952 47770  53.1606  71.7617 0001222  96.2518 263.8623 15.31703125305922

JSON: /api/v1/satellites/47770 · /tle

For live sub-satellite position, see the globe view (requires WebGL).

§ Visibility from observer

Set your observer location to see the next 7 days of passes ≥ 10°. The values pass through the URL so the page stays shareable.

No JS? Fill the form by hand. The geolocation button needs JavaScript.